Clinton-Sherman, OK

6:43 PM CST on February 23, 2018 (GMT -0600)
Clinton-Sherman

Weather History for KCSM - April, 2014

Change the Weather History Date:

Saturday, April 19, 2014

  Actual Average Record
Temperature  
Mean Temperature 64 °F -  
Max Temperature 79 °F 70 °F 87 °F (2002)
Min Temperature 51 °F 46 °F 30 °F (2013)
Growing Degree Days 14 (Base 50)    
Moisture  
Dew Point 50 °F    
Average Humidity 60    
Maximum Humidity 86    
Minimum Humidity 37    
Precipitation  
Precipitation 0.00 in - - ()
Sea Level Pressure  
Sea Level Pressure 30.07 in    
Wind  
Wind Speed 14 mph (South)    
Max Wind Speed 24 mph    
Max Gust Speed 32 mph    
Visibility 10 miles    
Events      
Averages and records for this station are not official NWS values.
T = Trace of Precipitation, MM = Missing Value Source: NWS Daily Summary

Daily Weather History Graph

Daily Weather History Graph

Search for Another Location

Airport or City:

Trip Planner

Search our weather history database for the weather conditions in past years. The results will help you decide how hot, cold, wet, or windy it might be!

Date:

Astronomy

Apr. 19, 2014 Rise Set
Actual Time 6:59 AM CDT 8:13 PM CDT
Civil Twilight 6:32 AM CDT 8:39 PM CDT
Nautical Twilight 6:01 AM CDT 9:11 PM CDT
Astronomical Twilight 5:28 AM CDT 9:43 PM CDT
Moon No Moon Rise 10:24 AM CDT (4/19)
Length of Visible Light 14h 06m
Length of Day
13h 13m
Waning Gibbous, 78% of the Moon is Illuminated
Apr 19
Waning Gibbous
Apr 22
Last Quarter
Apr 29
New
May 6
First Quarter
May 14
Full

Hourly Weather History & Observations

Time (CDT) Temp. Dew Point Humidity Pressure Visibility Wind Dir Wind Speed Gust Speed Precip Events Conditions
12:53 AM 51.1 °F 46.9 °F 86% 30.12 in 10.0 mi South 9.2 mph - N/A   Clear
1:53 AM 52.0 °F 48.0 °F 86% 30.10 in 10.0 mi SSE 9.2 mph - N/A   Clear
2:53 AM 53.1 °F 48.0 °F 83% 30.09 in 10.0 mi SSE 11.5 mph - N/A   Clear
4:53 AM 53.1 °F 48.0 °F 83% 30.08 in 10.0 mi SSE 10.4 mph - N/A   Clear
5:53 AM 54.0 °F 48.0 °F 80% 30.09 in 10.0 mi South 11.5 mph - N/A   Clear
7:53 AM 54.0 °F 48.0 °F 80% 30.13 in 8.0 mi South 8.1 mph - N/A   Clear
8:53 AM 60.1 °F 50.0 °F 69% 30.14 in 10.0 mi South 17.3 mph - N/A   Clear
9:53 AM 64.0 °F 51.1 °F 63% 30.13 in 10.0 mi South 18.4 mph 24.2 mph N/A   Clear
10:53 AM 66.0 °F 51.1 °F 59% 30.12 in 10.0 mi South 20.7 mph 27.6 mph N/A   Clear
11:53 AM 68.0 °F 52.0 °F 56% 30.11 in 10.0 mi South 23.0 mph 32.2 mph N/A   Clear
12:53 PM 69.1 °F 52.0 °F 54% 30.09 in 10.0 mi South 20.7 mph - N/A   Clear
1:53 PM 72.0 °F 53.1 °F 51% 30.07 in 10.0 mi SSE 19.6 mph 25.3 mph N/A   Clear
2:53 PM 75.9 °F 53.1 °F 45% 30.05 in 10.0 mi South 19.6 mph 26.5 mph N/A   Clear
3:53 PM 78.1 °F 51.1 °F 39% 30.02 in 10.0 mi South 19.6 mph 28.8 mph N/A   Clear
4:53 PM 78.1 °F 50.0 °F 37% 30.00 in 10.0 mi SSE 24.2 mph 32.2 mph N/A   Clear
5:53 PM 75.9 °F 48.9 °F 38% 30.00 in 10.0 mi South 18.4 mph 27.6 mph N/A   Clear
6:53 PM 75.0 °F 50.0 °F 41% 30.02 in 10.0 mi South 18.4 mph 26.5 mph N/A   Clear
7:53 PM 71.1 °F 48.9 °F 45% 30.01 in 10.0 mi SSE 10.4 mph - N/A   Clear
8:53 PM 66.9 °F 48.9 °F 52% 30.01 in 10.0 mi SSE 12.7 mph - N/A   Clear
9:53 PM 66.9 °F 50.0 °F 54% 30.00 in 10.0 mi SE 16.1 mph - N/A   Clear
10:53 PM 66.0 °F 50.0 °F 56% 30.03 in 10.0 mi SSE 16.1 mph - N/A   Clear
11:53 PM 64.9 °F 48.9 °F 56% 30.04 in 10.0 mi SSE 15.0 mph - N/A   Clear